This is the latest recevied weather packets stored in our database for station/object N0HEQ. If no packets are shown the sender has not sent any weather packets the latest 10 day(s).
| Time | Temp. | Humidity | Pressure | Rain* | Wind** | Luminosity | Snow |
|---|---|---|---|---|---|---|---|
| 1778027734 | 0° C | 97% | 1016.2 hPa | 0 mm | - | 9 W/m² | - |
| 1778027430 | 0° C | 97% | 1016.2 hPa | 0 mm | - | 12 W/m² | - |
| 1778027126 | 0° C | 97% | 1016.1 hPa | 0 mm | - | 18 W/m² | - |
| 1778026822 | 0° C | 97% | 1015.7 hPa | 0 mm | - | 23 W/m² | - |
| 1778026518 | 0° C | 97% | 1015.7 hPa | 0 mm | - | 17 W/m² | - |
| 1778026216 | 0° C | 97% | 1016 hPa | 0 mm | - | 12 W/m² | - |
| 1778025914 | 0° C | 97% | 1016 hPa | 0 mm | - | 19 W/m² | - |
| 1778025611 | 0° C | 97% | 1015.7 hPa | 0 mm | - | 17 W/m² | - |
| 1778025308 | 0° C | 97% | 1015.5 hPa | 0 mm | - | 17 W/m² | - |
| 1778025004 | 0° C | 97% | 1015.7 hPa | 0 mm | - | 16 W/m² | - |
| 1778024702 | 0° C | 97% | 1015.7 hPa | 0 mm | - | 15 W/m² | - |
| 1778024399 | 0° C | 97% | 1015.9 hPa | 0 mm | - | 16 W/m² | - |
| 1778024096 | 0° C | 97% | 1015.6 hPa | 0 mm | - | 17 W/m² | - |
| 1778023793 | 0.56° C | 97% | 1015.7 hPa | 0 mm | - | 18 W/m² | - |
| 1778023492 | 0.56° C | 97% | 1015.6 hPa | 0 mm | - | 17 W/m² | - |
| 1778023188 | 0.56° C | 97% | 1015.4 hPa | 0 mm | - | 17 W/m² | - |
| 1778022886 | 0.56° C | 96% | 1015.3 hPa | 0 mm | - | 17 W/m² | - |
| 1778022584 | 0.56° C | 96% | 1015 hPa | 0 mm | - | 15 W/m² | - |
| 1778022281 | 0.56° C | 96% | 1015.3 hPa | 0 mm | - | 10 W/m² | - |
| 1778021977 | 0.56° C | 96% | 1015.9 hPa | 0 mm | - | 8 W/m² | - |
| 1778021675 | 1.11° C | 96% | 1015.6 hPa | 0 mm | - | 11 W/m² | - |
| 1778021370 | 1.67° C | 96% | 1015.4 hPa | 0 mm | - | 22 W/m² | - |
| 1778021067 | 2.22° C | 96% | 1015 hPa | 0 mm | - | 32 W/m² | - |
| 1778020764 | 2.22° C | 96% | 1014.8 hPa | 0 mm | - | 39 W/m² | - |
| 1778020461 | 2.22° C | 96% | 1014.6 hPa | 0 mm | - | 33 W/m² | - |
* Rain latest hour (hover to see other rain measurements)
** Current wind speed in m/s (hover to see current wind gust speed)